Regional Weather Roundup
Issued by NWS

Home | Current Version | Previous Version | Graphics & Text | Print | Product List | Glossary On
Versions: 1 2 3 4 5 6 7 8 9 10 11 12 13 14 15 16 17 18 19 20 21 22 23 24 25 26 27 28 29 30 31 32 33 34 35 36 37 38 39 40 41 42 43 44 45 46 47 48 49 50
000
ASUS43 KMPX 171901
RWRMN
WEATHER ROUNDUP FOR MINNESOTA
NATIONAL WEATHER SERVICE TWIN CITIES/CHANHASSEN MN
100 PM CST WED JAN 17 2018


NOTE: "FAIR" INDICATES FEW OR NO CLOUDS BELOW 12,000 FEET WITH NO
SIGNIFICANT WEATHER AND/OR OBSTRUCTIONS TO VISIBILITY. N/A MEANS
CURRENT SKY AND/OR WEATHER CONDITIONS ARE NOT AVAILABLE.

MNZ060>063-068>070-172000-
   Twin Cities Metro

CITY           SKY/WX    TMP DP  RH WIND       PRES   REMARKS
TWIN CITIES    FAIR      21   8  57 SW12      30.18F WCI   9
ST PAUL        FAIR      22   7  52 S10       30.19F WCI  11
CRYSTAL        FAIR      21   5  50 S10       30.15F WCI  10
BLAINE         MOSUNNY   21   9  58 S14       30.15F WCI   8
LAKEVILLE      FAIR      19   9  63 SW3       30.18F
EDEN PRAIRIE   FAIR      21   7  54 SW12      30.16F WCI   9
SOUTH ST PAUL  FAIR      22   6  49 S14       30.18F WCI  10
LAKE ELMO      FAIR      23   9  54 S13       30.17F WCI  11
$$
MNZ001>005-007-008-013>017-022>024-027-028-172000-
   Northwest Minnesota

CITY           SKY/WX    TMP DP  RH WIND       PRES   REMARKS
BEMIDJI        FAIR      28   9  46 SW13G18   29.90F WCI  17
HALLOCK        FAIR      21  16  79 S13       29.87F WCI   9
ROSEAU         FAIR      19  12  73 SW15      29.86S WCI   5
WARROAD        FLURRIES  19   9  63 SW14G21   29.85F WCI   6
CROOKSTON      FAIR      16  10  79 S17       29.97F WCI   0
FOSSTON        FAIR      19   9  63 SW21      29.96F WCI   3
DETROIT LAKES  FAIR      23  10  58 W10G16    30.02F WCI  12
MOORHEAD       FAIR      21  10  63 CALM      30.05F
PARK RAPIDS    FAIR      24  10  55 SW15      29.96F WCI  11
MAHNOMEN       FAIR      18  10  71 SW20      29.99F WCI   1
$$
MNZ006-009>011-018-025>026-172000-
   North Central Minnesota

CITY           SKY/WX    TMP DP  RH WIND       PRES   REMARKS
BAUDETTE       FAIR      21   9  59 SW10      29.83F WCI  10
FLAG ISLAND    FAIR      21   9  58 SW9       29.81F WCI  11
INTL FALLS     FAIR      23   7  50 W14G23    29.84F WCI  11
WASKISH        FAIR      19  10  68 W15       29.90S WCI   5
BIG FORK       FAIR      27   9  46 SW9G20    29.86F WCI  17
LONGVILLE      FAIR      27   7  43 SW10G22   29.95F WCI  17
GRAND RAPIDS   FAIR      31   9  39 SW12G20   29.92F WCI  22
CRANE LAKE     FAIR      27   9  46 CALM      29.84F
ORR            FAIR      28   5  37 W8        29.82F WCI  20
COOK           FAIR      27   9  46 SW13      29.85F WCI  16
WALKER         FAIR      27   6  41 SW15      29.92F WCI  15
$$
MNZ012-019>021-037-172000-
   Northeast Minnesota

CITY           SKY/WX    TMP DP  RH WIND       PRES   REMARKS
DULUTH         FAIR      20   5  52 W20       29.92F WCI   4
ELY            FAIR      25   9  50 SW12G20   29.83F WCI  14
HIBBING        FAIR      24   8  50 VRB6      29.87F WCI  17
EVELETH        FAIR      23   5  45 SW12      29.88F WCI  11
DULUTH HARBOR  FAIR      21   7  53 SW21G32   29.98F HAZE    WCI   6
TWO HARBORS    LGT SNOW  30   9  40 SW17G30   29.88F WCI  18
GRAND MARAIS     N/A     29  23  78 SW29G35   29.83F WCI  14
G MARAIS ARPRT FAIR      30   7  37 SW10G20   29.76F WCI  21
$$
MNZ029>031-032-039>041-046>048-054>057-064-172000-
   West Central Minnesota

CITY           SKY/WX    TMP DP  RH WIND       PRES   REMARKS
FERGUS FALLS   FAIR      25  12  58 SW8       30.10F WCI  16
WHEATON        SUNNY     34  12  40 SW9       30.09F WCI  26
MORRIS         SUNNY     30  16  55 SW9       30.09F WCI  22
ALEXANDRIA     FAIR      24  10  55 SW15      30.06F WCI  11
ELBOW LAKE     FAIR      26  14  59 SW13      30.07F HAZE    WCI  15
WADENA         FAIR      23   7  50 SW12G18   30.03S WCI  12
GLENWOOD       FAIR      27  12  54 SW13      30.09F WCI  16
APPLETON       SUNNY     30  16  55 SW9       30.12S WCI  22
BENSON         SUNNY     27  12  54 W8        30.13F WCI  18
ORTONVILLE     SUNNY     32  12  43 W10       30.11R WCI  24
MADISON        SUNNY     34  16  47 W12G22    30.10F WCI  25
WILLMAR        FAIR      25  12  58 SW9       30.14F WCI  15
$$
MNZ033>034-036-042>043-049>051-058-059-172000-
   Central Minnesota

CITY           SKY/WX    TMP DP  RH WIND       PRES   REMARKS
ST CLOUD       FAIR      21   8  57 SW13      30.11F WCI   9
SAUK CENTRE      N/A     24   9  54 SW13      30.09F WCI  12
PAYNESVILLE    FAIR      25  12  58 SW14G20   30.11F WCI  13
AITKIN         FAIR      21   3  45 SW12G17   29.98F WCI   9
PINE RIVER     FAIR      25   7  46 SW12      30.02F WCI  14
BRAINERD       FAIR      24   5  44 SW16      30.02F WCI  11
STAPLES        FAIR      27   5  39 SW10      30.03F WCI  17
LONG PRAIRIE   FAIR      23  10  58 S13       30.07F WCI  11
LITTLE FALLS   FAIR      23   1  39 SW8       30.09F WCI  14
LITCHFIELD     FAIR      25  12  58 SW5       30.12F WCI  19
BUFFALO        FAIR      21   9  58 S9G18     30.16F WCI  11
MAPLE LAKE     FAIR      24  11  59 MISG      30.13F
HUTCHINSON     FAIR      25  13  60 S9G16     30.15F WCI  15
$$
MNZ037-044-045-052-053-172000-
   East Central Minnesota

CITY           SKY/WX    TMP DP  RH WIND       PRES   REMARKS
PRINCETON      FAIR      23   7  50 S13       30.11F WCI  11
MORA           FAIR      21   5  49 SW13G18   30.10F WCI   9
CAMBRIDGE      FAIR      21   9  58 S12       30.12F WCI   9
RUSH CITY      FAIR      21   6  50 S10       30.11F WCI  10
MOOSE LAKE     FAIR      21   3  45 SW13G18   30.00F WCI   9
HINCKLEY       FAIR      21   5  49 SW16G22   30.08F WCI   7
CLOQUET        FAIR      19   1  45 SW12G20   29.96F WCI   7
MCGREGOR       FAIR      23   5  46 SW13      30.00F WCI  11
$$
MNZ071>073-080-081-089-090-097-098-172000-
   Southwest Minnesota

CITY           SKY/WX    TMP DP  RH WIND       PRES   REMARKS
MONTEVIDEO     SUNNY     30  16  55 W13G18    30.11F WCI  20
GRANITE FALLS  SUNNY     28  14  57 S13G21    30.15F WCI  17
CANBY          SUNNY     31  14  48 SW23G39   30.09F WCI  18
MARSHALL       SUNNY     28  12  51 SW21G30   30.09F WCI  15
REDWOOD FALLS  SUNNY     24  12  60 SW13      30.14F WCI  12
OLIVIA         SUNNY     27  14  59 SW15      30.12F WCI  15
PIPESTONE      CLOUDY    19  10  68 SW16      30.18F WCI   5
WINDOM         SUNNY     23   5  46 SW23      30.19F WCI   7
WORTHINGTON    SUNNY     22  11  62 SW23      30.21F WCI   6
JACKSON        SUNNY     23  12  63 SW20      30.23F WCI   8
SLAYTON        CLOUDY    20  10  67 SW17      30.20F WCI   5
$$
MNZ065>067-074>077-082>085-091>093-172000-
   South Central Minnesota

CITY           SKY/WX    TMP DP  RH WIND       PRES   REMARKS
MANKATO        FAIR      22  11  62 S17       30.20F WCI   8
NEW ULM        SUNNY     25  10  54 SW15G21   30.17F WCI  12
ST JAMES       SUNNY     25  14  63 S13       30.22F WCI  13
FAIRMONT       SUNNY     24  13  62 SW18G26   30.23F WCI  10
FARIBAULT      FAIR      19   9  63 S13G22    30.21F WCI   7
OWATONNA       FAIR      19  10  68 SW18      30.21F WCI   4
WASECA         FAIR      19  10  68 S20       30.23F WCI   4
ALBERT LEA     FAIR      19   7  58 SW16G25   30.24F WCI   5
$$
MNZ078>079-086>088-094>096-172000-
   Southeast Minnesota

CITY           SKY/WX    TMP DP  RH WIND       PRES   REMARKS
ROCHESTER      FAIR      19   9  65 SW22G31   30.22F WCI   2
RED WING       FAIR      21   3  45 SW10G17   30.22F WCI  10
STANTON        FAIR      20  10  63 SW17G23   30.19F WCI   5
DODGE CENTER   FAIR      19   9  63 SW23      30.21F WCI   2
WINONA         FAIR      23   7  50 SW7       30.27F WCI  15
PRESTON        FAIR      21   6  53 SW18G24   30.26F WCI   6
$$
ABBREVIATIONS USED IN REMARKS
   TC - TEMPERATURES IN CELSIUS
  WCI - WIND CHILL INDEX
   HX - HEAT INDEX
  VSB - VISIBILITY
$$




USA.gov is the U.S. government's official web portal to all federal, state and local government web resources and services.